Location: Zagreb
(45.8000°N, 16.0000°E)
Time: 14:19:38
(UTC+02:00)

Transit 2A Rocket - Pass Details

Date: 10 August 2022
Orbit: 593 x 907 km, 66.7° (Epoch: 25 September)

Event Time Altitude Azimuth Distance (km) Brightness Sun altitude
Rises 18:42:41 0° 178° (S) 3,032 8.0 14.2°
Reaches altitude 10° 18:45:25 10° 164° (SSE) 2,070 7.1 13.7°
Maximum altitude 18:49:05 23° 112° (ESE) 1,334 5.8 13.1°
Drops below altitude 10° 18:52:36 10° 59° (ENE) 1,976 6.7 12.5°
Sets 18:55:08 0° 45° (NE) 2,860 7.6 12.1°
